Location: Bishopstone
(51.0167°N, 1.9000°W)
Time: 22:31:56
(UTC+00:00)

YAOGAN 1 - Pass Details

Date: 16 September 2019
Orbit: 619 x 621 km, 98.0° (Epoch: 16 October)

Event Time Altitude Azimuth Distance (km) Brightness Sun altitude
Rises 18:51:22 0° 180° (S) 2,887 5.9 -5.7°
Reaches altitude 10° 18:53:37 10° 186° (S) 1,986 5.1 -6.0°
Maximum altitude 18:57:47 47° 261° (W) 826 3.8 -6.7°
Drops below altitude 10° 19:02:00 10° 336° (NNW) 2,001 5.7 -7.3°
Sets 19:04:16 0° 342° (NNW) 2,912 6.5 -7.7°
